Other Public Products
Issued by NWS Charleston, SC

Current Version | Previous Version | Text Only | Print | Product List | Glossary Off
Versions: 1 2 3 4 5 6 7 8 9 10 11 12 13 14 15 16 17 18 19 20 21 22 23 24 25 26 27 28 29 30 31 32 33 34 35 36 37 38 39 40 41 42 43 44 45 46 47 48 49 50

000
FPUS82 KCHS 212012
OPUCHS

TEST...KCHS/KSAV Gateway Observations...TEST
National Weather Service Charleston SC
400 PM EDT FRI JUL 21 2017

NOTE: "fair" indicates few or no clouds below 12,000 feet with no
significant weather and/or obstructions to visibility.

SCZ050-WAZ558-NCZ071-TXZ119-213-PAZ071-DCZ001-FLZ074-172-MI076-
NYZ176-178-MAZ016-IL014-TNZ027-NJZ106-GAZ044-MD014-212100-

...Gateway Observations for Charleston International...

CITY           SKY/WX    TMP DP  RH WIND       PRES   REMARKS
Chas Airport   MOSUNNY   90  75  61 S13       30.00F HX 100
Seattle        PTSUNNY   71  52  50 VRB3      30.16S
Charlotte      MOSUNNY   95  68  41 S5        30.00F HX  99
Dallas DFW     MOSUNNY   99  71  40 S9        29.95F HX 107
Dallas Love    MOSUNNY   98  68  37 S9        29.95F HX 103
Philladelphia  CLOUDY    93  67  42 SW12      29.90F HX  96
Wash National  PTSUNNY   95  71  45 NW8       29.91F HX 102
Baltimore      PTSUNNY   93  71  48 S7        29.90F HX 100
Miami          LGT RAIN  77  74  90 SE5       30.05F
Detroit        CLOUDY    86  67  52 SE5       29.97F
Newark         PTSUNNY   93  64  38 W13G21    29.86S HX  94
Laguardia      PTSUNNY   93  63  36 W16G22    29.85S HX  94
J F K          PTSUNNY   92  68  45 SW18      29.87S HX  96
Boston Logan   PTSUNNY   90  58  33 W12       29.78S
Ft. Lauderdale LGT RAIN  76  74  93 W7        30.03F
Chicago O`Hare CLOUDY    87  70  56 VRB6      29.93F HX  92
Chicago Midway PTSUNNY   89  69  51 S9        29.94F HX  93
Houston Bush   PTSUNNY   95  72  47 VRB5      29.98F HX 103
Houston Hobby  MOSUNNY   96  71  44 S7        29.98F HX 103
Nashville      MOSUNNY   96  71  44 SW6       30.01F HX 103
Atlanta        PTSUNNY   91  71  51 W7        30.01F HX  97

$$

GAZ044-118-TXZ119-213-NCZ071-DCZ001-MDZ014-506-PAZ021-071-NJZ106-
NYZ176-178-MAZ106-OHZ011-021-055-MIZ076-KYZ091-ILZ014-INZ047-
MNZ060-ONZ431-212100-

...Gateway Observations for Savannah International...

CITY           SKY/WX    TMP DP  RH WIND       PRES   REMARKS
Savannah Arpt  PTSUNNY   93  75  55 S8        29.99F HX 104
Atlanta        PTSUNNY   91  71  51 W7        30.01F HX  97
Charlotte      MOSUNNY   95  68  41 S5        30.00F HX  99
Dallas DFW     MOSUNNY   99  71  40 S9        29.95F HX 107
Houston Bush   PTSUNNY   95  72  47 VRB5      29.98F HX 103
Wash National  PTSUNNY   95  71  45 NW8       29.91F HX 102
Wash Dulles    CLOUDY    91  71  51 SW6       29.92F HX  97
Baltimore      PTSUNNY   93  71  48 S7        29.90F HX 100
Philadelphia   CLOUDY    93  67  42 SW12      29.90F HX  96
Newark         PTSUNNY   93  64  38 W13G21    29.86S HX  94
Laguardia      PTSUNNY   93  63  36 W16G22    29.85S HX  94
J F K          PTSUNNY   92  68  45 SW18      29.87S HX  96
Boston         PTSUNNY   90  58  33 W12       29.78S
Pittsburg      CLOUDY    86  71  60 CALM      29.97F HX  91
Akron          PTSUNNY   92  68  45 NW7       29.97F HX  96
Cleveland      PTSUNNY   89  71  55 N9        29.98S HX  95
Cincinnati     CLOUDY    88  76  67 W8        30.01F HX  99
Columbus       CLOUDY    79  73  80 W7        30.01S
Detroit        CLOUDY    86  67  52 SE5       29.97F
Chicago O`Hare CLOUDY    87  70  56 VRB6      29.93F HX  92
Minneapolis    PTSUNNY   80  68  66 S10       29.84F
Indianapolis   PTSUNNY   90  70  51 VRB7      29.98F HX  95
Toronto Canada PTSUNNY   84  55  37 NW16      29.91S

$$




USA.gov is the U.S. government's official web portal to all federal, state and local government web resources and services.